TimeEST,TemperatureF,Dew PointF,Humidity,Sea Level PressureIn,VisibilityMPH,Wind Direction,Wind SpeedMPH,Gust SpeedMPH,PrecipitationIn,Events,Conditions,WindDirDegrees,DateUTC
12:13 AM,21.2,14.0,74,30.37,10.0,WNW,8.1,-,N/A,,Clear,300,2013-12-07 05:13:00
12:33 AM,21.2,14.0,74,30.38,10.0,WNW,9.2,-,N/A,,Scattered Clouds,300,2013-12-07 05:33:00
12:53 AM,21.2,12.2,68,30.38,10.0,NW,12.7,-,N/A,,Mostly Cloudy,310,2013-12-07 05:53:00
1:13 AM,21.2,12.2,68,30.38,10.0,NW,9.2,-,N/A,,Overcast,320,2013-12-07 06:13:00
1:33 AM,21.2,12.2,68,30.39,10.0,NW,10.4,-,N/A,,Overcast,320,2013-12-07 06:33:00
1:53 AM,21.2,10.4,63,30.39,10.0,NW,8.1,-,N/A,,Scattered Clouds,310,2013-12-07 06:53:00
2:13 AM,19.4,10.4,68,30.40,10.0,WNW,11.5,-,N/A,,Clear,300,2013-12-07 07:13:00
2:33 AM,19.4,10.4,68,30.41,10.0,WNW,8.1,-,N/A,,Clear,290,2013-12-07 07:33:00
2:53 AM,19.4,10.4,68,30.41,10.0,WNW,10.4,-,N/A,,Clear,290,2013-12-07 07:53:00
3:14 AM,19.4,10.4,68,30.42,10.0,WNW,9.2,-,N/A,,Clear,300,2013-12-07 08:14:00
3:34 AM,19.4,10.4,68,30.43,10.0,WNW,9.2,-,N/A,,Clear,300,2013-12-07 08:34:00
3:54 AM,17.6,10.4,73,30.43,10.0,WNW,6.9,-,N/A,,Clear,300,2013-12-07 08:54:00
4:14 AM,17.6,10.4,73,30.44,10.0,WNW,5.8,-,N/A,,Clear,290,2013-12-07 09:14:00
4:34 AM,17.6,10.4,73,30.44,10.0,WNW,5.8,-,N/A,,Clear,300,2013-12-07 09:34:00
4:54 AM,17.6,10.4,73,30.45,10.0,WNW,4.6,-,N/A,,Clear,290,2013-12-07 09:54:00
5:14 AM,17.6,10.4,73,30.46,10.0,WNW,4.6,-,N/A,,Clear,300,2013-12-07 10:14:00
5:34 AM,15.8,10.4,79,30.47,10.0,WNW,4.6,-,N/A,,Clear,290,2013-12-07 10:34:00
5:54 AM,17.6,10.4,73,30.47,10.0,WNW,3.5,-,N/A,,Clear,290,2013-12-07 10:54:00
6:15 AM,15.8,10.4,79,30.48,10.0,Calm,Calm,-,N/A,,Clear,0,2013-12-07 11:15:00
6:35 AM,15.8,10.4,79,30.49,10.0,Calm,Calm,-,N/A,,Clear,0,2013-12-07 11:35:00
6:55 AM,15.8,10.4,79,30.49,10.0,West,3.5,-,N/A,,Clear,260,2013-12-07 11:55:00
7:15 AM,15.8,10.4,79,30.50,10.0,Calm,Calm,-,N/A,,Clear,0,2013-12-07 12:15:00
7:35 AM,15.8,10.4,79,30.50,10.0,Calm,Calm,-,N/A,,Scattered Clouds,0,2013-12-07 12:35:00
7:55 AM,17.6,12.2,79,30.50,10.0,Calm,Calm,-,N/A,,Overcast,0,2013-12-07 12:55:00
8:15 AM,17.6,12.2,79,30.51,10.0,WSW,3.5,-,N/A,,Overcast,240,2013-12-07 13:15:00
8:35 AM,19.4,12.2,74,30.52,10.0,West,5.8,-,N/A,,Mostly Cloudy,270,2013-12-07 13:35:00
8:56 AM,19.4,14.0,80,30.53,10.0,West,5.8,-,N/A,,Scattered Clouds,280,2013-12-07 13:56:00
9:16 AM,21.2,15.8,80,30.53,10.0,WNW,6.9,-,N/A,,Clear,300,2013-12-07 14:16:00
9:36 AM,21.2,12.2,68,30.54,10.0,WNW,10.4,-,N/A,,Clear,290,2013-12-07 14:36:00
9:56 AM,21.2,12.2,68,30.54,10.0,NW,9.2,-,N/A,,Scattered Clouds,310,2013-12-07 14:56:00
10:16 AM,23.0,12.2,63,30.55,10.0,WNW,9.2,-,N/A,,Mostly Cloudy,290,2013-12-07 15:16:00
10:36 AM,23.0,10.4,59,30.55,10.0,WNW,11.5,17.3,N/A,,Scattered Clouds,300,2013-12-07 15:36:00
10:56 AM,23.0,10.4,59,30.56,10.0,WNW,13.8,-,N/A,,Clear,300,2013-12-07 15:56:00
11:16 AM,24.8,10.4,54,30.56,10.0,NW,10.4,-,N/A,,Clear,310,2013-12-07 16:16:00
11:36 AM,24.8,10.4,54,30.56,10.0,WNW,9.2,17.3,N/A,,Clear,290,2013-12-07 16:36:00
11:56 AM,24.8,8.6,50,30.55,10.0,WNW,8.1,19.6,N/A,,Clear,300,2013-12-07 16:56:00
12:16 PM,24.8,10.4,54,30.55,10.0,NW,11.5,-,N/A,,Clear,320,2013-12-07 17:16:00
12:36 PM,24.8,10.4,54,30.55,10.0,WNW,10.4,18.4,N/A,,Scattered Clouds,300,2013-12-07 17:36:00
12:52 PM,26.6,8.6,47,30.54,10.0,West,10.4,17.3,N/A,,Clear,270,2013-12-07 17:52:00
1:12 PM,26.6,10.4,51,30.54,10.0,WNW,9.2,16.1,N/A,,Clear,300,2013-12-07 18:12:00
1:32 PM,26.6,8.6,47,30.54,10.0,NW,9.2,16.1,N/A,,Clear,310,2013-12-07 18:32:00
1:52 PM,26.6,8.6,47,30.53,10.0,WNW,10.4,-,N/A,,Clear,300,2013-12-07 18:52:00
2:12 PM,26.6,8.6,47,30.53,10.0,NW,10.4,-,N/A,,Clear,310,2013-12-07 19:12:00
2:32 PM,26.6,8.6,47,30.53,10.0,West,11.5,-,N/A,,Clear,280,2013-12-07 19:32:00
2:52 PM,26.6,8.6,47,30.52,10.0,NW,9.2,-,N/A,,Clear,310,2013-12-07 19:52:00
3:12 PM,26.6,8.6,47,30.52,10.0,NNW,8.1,-,N/A,,Clear,330,2013-12-07 20:12:00
3:33 PM,26.6,10.4,51,30.53,10.0,WNW,9.2,-,N/A,,Clear,300,2013-12-07 20:33:00
3:53 PM,26.6,8.6,47,30.53,10.0,WNW,9.2,-,N/A,,Clear,290,2013-12-07 20:53:00
4:13 PM,26.6,8.6,47,30.54,10.0,NW,8.1,-,N/A,,Clear,310,2013-12-07 21:13:00
4:33 PM,24.8,8.6,50,30.55,10.0,NW,8.1,-,N/A,,Clear,310,2013-12-07 21:33:00
4:53 PM,24.8,8.6,50,30.55,10.0,WNW,8.1,-,N/A,,Clear,300,2013-12-07 21:53:00
5:13 PM,23.0,8.6,54,30.55,10.0,NW,4.6,-,N/A,,Clear,310,2013-12-07 22:13:00
5:33 PM,21.2,8.6,58,30.55,10.0,NW,4.6,-,N/A,,Clear,320,2013-12-07 22:33:00
5:53 PM,21.2,10.4,63,30.55,10.0,NW,3.5,-,N/A,,Clear,320,2013-12-07 22:53:00
6:13 PM,21.2,10.4,63,30.56,10.0,NW,3.5,-,N/A,,Clear,310,2013-12-07 23:13:00
6:33 PM,19.4,10.4,68,30.56,10.0,Calm,Calm,-,N/A,,Clear,0,2013-12-07 23:33:00
6:54 PM,19.4,10.4,68,30.56,10.0,NW,3.5,-,N/A,,Clear,310,2013-12-07 23:54:00
7:14 PM,19.4,10.4,68,30.57,10.0,NW,3.5,-,N/A,,Clear,320,2013-12-08 00:14:00
7:34 PM,19.4,10.4,68,30.57,10.0,NW,5.8,-,N/A,,Clear,310,2013-12-08 00:34:00
7:54 PM,19.4,10.4,68,30.58,10.0,NW,6.9,-,N/A,,Clear,320,2013-12-08 00:54:00
8:14 PM,19.4,10.4,68,30.59,10.0,NW,6.9,-,N/A,,Clear,310,2013-12-08 01:14:00
8:34 PM,19.4,10.4,68,30.59,10.0,NW,5.8,-,N/A,,Clear,320,2013-12-08 01:34:00
8:54 PM,19.4,10.4,68,30.58,10.0,NW,5.8,-,N/A,,Clear,320,2013-12-08 01:54:00
9:14 PM,17.6,10.4,73,30.58,10.0,NW,3.5,-,N/A,,Clear,320,2013-12-08 02:14:00
9:34 PM,17.6,10.4,73,30.58,10.0,NW,4.6,-,N/A,,Clear,310,2013-12-08 02:34:00
9:54 PM,17.6,10.4,73,30.59,10.0,NNW,3.5,-,N/A,,Clear,330,2013-12-08 02:54:00
10:15 PM,17.6,10.4,73,30.58,10.0,Calm,Calm,-,N/A,,Clear,0,2013-12-08 03:15:00
10:35 PM,17.6,10.4,73,30.58,10.0,Calm,Calm,-,N/A,,Clear,0,2013-12-08 03:35:00
10:55 PM,15.8,10.4,79,30.58,10.0,Calm,Calm,-,N/A,,Clear,0,2013-12-08 03:55:00
11:15 PM,15.8,10.4,79,30.58,10.0,Calm,Calm,-,N/A,,Clear,0,2013-12-08 04:15:00
11:35 PM,15.8,10.4,79,30.58,10.0,Calm,Calm,-,N/A,,Clear,0,2013-12-08 04:35:00
11:55 PM,14.0,10.4,86,30.57,10.0,Calm,Calm,-,N/A,,Clear,0,2013-12-08 04:55:00